Terminal Aerodrome Forecast
Issued by NWS Sterling, VA

Home | Current Version | Previous Version | Text Only | Print | Product List | Glossary On
Versions: 1 2 3 4 5 6 7 8 9 10 11 12 13 14 15
000
FTUS41 KLWX 290859 AAA
TAFCHO
TAF AMD
KCHO 290859Z 2909/3006 VRB04KT P6SM SCT250
     FM291000 VRB03KT 3SM BR SCT120
      TEMPO 2910/2913 1SM BR FEW120
     FM291300 VRB03KT P6SM BKN050
     FM291800 17005KT 6SM -SHRA VCTS BKN040CB
     FM292200 VRB05KT P6SM BKN090=

USA.gov is the U.S. government's official web portal to all federal, state and local government web resources and services.